| time (UTC) | temp F | wind direction | speed MPH | gust MPH | rain 1hr in | rain 24hr in | rain mn in | humidity % | barometer mb |
| 20260903122458 | 53 | 164 | 0.0 | 0.0 | 0.05 | 0.22 | 0.05 | 99 | 1006.7 |
| 20260903121928 | 53 | 164 | 0.0 | 0.0 | 0.05 | 0.22 | 0.05 | 99 | 1006.7 |
| 20260903121442 | 53 | 164 | 0.0 | 0.0 | 0.05 | 0.22 | 0.05 | 99 | 1006.5 |
| 20260903120928 | 53 | 164 | 0.0 | 0.0 | 0.05 | 0.22 | 0.05 | 99 | 1006.6 |
| 20260903120430 | 53 | 164 | 0.0 | 0.0 | 0.05 | 0.22 | 0.05 | 99 | 1006.7 |
| 20260903120018 | 53 | 164 | 0.0 | 0.0 | 0.04 | 0.17 | 0.03 | 99 | 1006.9 |
| 20260903115957 | 53 | 164 | 0.0 | 0.0 | 0.05 | 0.17 | 0.05 | 99 | 1006.9 |
| 20260903115211 | 53 | 165 | 0.0 | 0.0 | 0.01 | 0.17 | 0.01 | 99 | 1006.7 |
| 20260903114430 | 53 | 165 | 0.0 | 0.0 | 0.01 | 0.17 | 0.01 | 99 | 1006.6 |
| 20260903113929 | 53 | 165 | 0.0 | 0.0 | 0.00 | 0.17 | 0.00 | 99 | 1006.6 |
| 20260903113455 | 53 | 165 | 0.0 | 0.0 | 0.00 | 0.17 | 0.00 | 99 | 1006.5 |
| 20260903112430 | 53 | 165 | 0.0 | 0.0 | 0.00 | 0.17 | 0.00 | 99 | 1006.4 |
| 20260903111929 | 53 | 165 | 0.0 | 0.0 | 0.00 | 0.17 | 0.00 | 99 | 1006.5 |
| 20260903111533 | 53 | 165 | 0.0 | 0.0 | 0.00 | 0.17 | 0.00 | 99 | 1006.4 |
| 20260903111509 | 53 | 165 | 0.0 | 0.0 | 0.00 | 0.17 | 0.00 | 99 | 1006.5 |
| 20260903110430 | 52 | 165 | 0.0 | 0.0 | 0.00 | 0.17 | 0.00 | 99 | 1006.4 |
| 20260903105929 | 52 | 165 | 0.0 | 0.0 | 0.00 | 0.17 | 0.00 | 99 | 1006.4 |
| 20260903105429 | 52 | 165 | 0.0 | 0.0 | 0.00 | 0.17 | 0.00 | 99 | 1006.2 |
| 20260903105213 | 52 | 165 | 0.0 | 0.0 | 0.00 | 0.17 | 0.00 | 99 | 1006.5 |
| 20260903104430 | 52 | 165 | 0.0 | 0.0 | 0.00 | 0.17 | 0.00 | 99 | 1006.3 |
| 20260903104214 | 52 | 165 | 0.0 | 0.0 | 0.00 | 0.17 | 0.00 | 99 | 1006.3 |
| 20260903103429 | 53 | 165 | 0.0 | 6.0 | 0.00 | 0.17 | 0.00 | 99 | 1006.3 |
| 20260903102929 | 53 | 165 | 0.0 | 6.0 | 0.00 | 0.17 | 0.00 | 99 | 1006.6 |
| 20260903102429 | 53 | 165 | 1.0 | 3.0 | 0.00 | 0.17 | 0.00 | 99 | 1006.4 |
| 20260903101930 | 53 | 165 | 0.0 | 0.0 | 0.00 | 0.17 | 0.00 | 99 | 1006.3 |
| 20260903101429 | 53 | 165 | 0.0 | 0.0 | 0.00 | 0.17 | 0.00 | 99 | 1006.3 |
| 20260903101013 | 53 | 165 | 0.0 | 0.0 | 0.00 | 0.17 | 0.00 | 99 | 1006.5 |
| 20260903100954 | 53 | 165 | 0.0 | 0.0 | 0.00 | 0.17 | 0.00 | 99 | 1006.2 |
| 20260903100224 | 53 | 165 | 0.0 | 0.0 | 0.00 | 0.17 | 0.00 | 99 | 1006.3 |
| 20260903095431 | 53 | 165 | 0.0 | 0.0 | 0.00 | 0.17 | 0.00 | 99 | 1006.2 |
| 20260903095232 | 53 | 165 | 0.0 | 0.0 | 0.00 | 0.17 | 0.00 | 99 | 1006.3 |
| 20260903094721 | 53 | 165 | 0.0 | 0.0 | 0.00 | 0.17 | 0.00 | 99 | 1006.2 |
| 20260903093929 | 53 | 165 | 0.0 | 0.0 | 0.00 | 0.17 | 0.00 | 99 | 1006.5 |
| 20260903093429 | 53 | 165 | 0.0 | 4.0 | 0.00 | 0.17 | 0.00 | 99 | 1006.3 |
| 20260903092929 | 52 | 165 | 0.0 | 4.0 | 0.00 | 0.17 | 0.00 | 99 | 1006.3 |
| 20260903092429 | 52 | 165 | 0.0 | 0.0 | 0.00 | 0.17 | 0.00 | 99 | 1006.2 |
| 20260903091929 | 52 | 165 | 0.0 | 0.0 | 0.00 | 0.17 | 0.00 | 99 | 1006.1 |
| 20260903091737 | 52 | 165 | 0.0 | 9.0 | 0.00 | 0.17 | 0.00 | 99 | 1006.3 |
| 20260903090929 | 52 | 165 | 0.0 | 9.0 | 0.00 | 0.17 | 0.00 | 99 | 1006.3 |
| 20260903090430 | 52 | 165 | 0.0 | 0.0 | 0.00 | 0.17 | 0.00 | 99 | 1006.2 |
| 20260903085930 | 52 | 165 | 0.0 | 0.0 | 0.00 | 0.17 | 0.00 | 99 | 1006.1 |
| 20260903085428 | 52 | 165 | 0.0 | 0.0 | 0.00 | 0.17 | 0.00 | 99 | 1006.3 |
| 20260903084928 | 52 | 165 | 0.0 | 0.0 | 0.00 | 0.17 | 0.00 | 99 | 1006.2 |
| 20260903084735 | 52 | 165 | 0.0 | 0.0 | 0.00 | 0.17 | 0.00 | 99 | 1006.1 |
| 20260903083928 | 52 | 165 | 0.0 | 0.0 | 0.00 | 0.17 | 0.00 | 99 | 1006.0 |
| 20260903083429 | 52 | 165 | 0.0 | 0.0 | 0.00 | 0.17 | 0.00 | 99 | 1006.1 |
| 20260903083044 | 52 | 165 | 0.0 | 0.0 | 0.00 | 0.17 | 0.00 | 99 | 1006.0 |
| 20260903083015 | 52 | 165 | 0.0 | 0.0 | 0.00 | 0.17 | 0.00 | 99 | 1006.1 |
| 20260903081930 | 52 | 165 | 0.0 | 0.0 | 0.00 | 0.17 | 0.00 | 99 | 1006.0 |
| 20260903081429 | 52 | 165 | 0.0 | 0.0 | 0.00 | 0.17 | 0.00 | 99 | 1006.2 |
| 20260903080929 | 52 | 165 | 0.0 | 0.0 | 0.00 | 0.17 | 0.00 | 99 | 1006.0 |
| 20260903080721 | 52 | 165 | 0.0 | 0.0 | 0.00 | 0.17 | 0.00 | 99 | 1006.0 |
| 20260903075931 | 52 | 165 | 0.0 | 0.0 | 0.00 | 0.17 | 0.00 | 99 | 1006.0 |
| 20260903075430 | 52 | 165 | 0.0 | 0.0 | 0.00 | 0.17 | 0.00 | 99 | 1006.0 |
| 20260903074935 | 52 | 165 | 0.0 | 0.0 | 0.00 | 0.17 | 0.00 | 99 | 1006.1 |
| 20260903074432 | 52 | 165 | 0.0 | 0.0 | 0.00 | 0.17 | 0.00 | 99 | 1006.0 |
| 20260903073932 | 52 | 165 | 0.0 | 0.0 | 0.00 | 0.17 | 0.00 | 99 | 1005.9 |
| 20260903073431 | 52 | 165 | 0.0 | 0.0 | 0.00 | 0.17 | 0.00 | 99 | 1006.1 |
| 20260903072929 | 52 | 165 | 0.0 | 0.0 | 0.00 | 0.17 | 0.00 | 99 | 1006.1 |
| 20260903072429 | 53 | 165 | 0.0 | 0.0 | 0.00 | 0.17 | 0.00 | 99 | 1005.8 |
| 20260903071930 | 53 | 165 | 0.0 | 0.0 | 0.00 | 0.17 | 0.00 | 99 | 1006.1 |
| 20260903071429 | 53 | 165 | 0.0 | 0.0 | 0.00 | 0.17 | 0.00 | 99 | 1006.1 |
| 20260903070931 | 53 | 165 | 0.0 | 0.0 | 0.00 | 0.17 | 0.00 | 99 | 1005.8 |
| 20260903070429 | 53 | 165 | 0.0 | 9.0 | 0.00 | 0.17 | 0.00 | 99 | 1005.8 |
| 20260903065929 | 53 | 165 | 0.0 | 9.0 | 0.00 | 0.17 | 0.17 | 99 | 1006.1 |
| 20260903065429 | 53 | 165 | 0.0 | 0.0 | 0.00 | 0.17 | 0.17 | 99 | 1006.1 |
| 20260903065211 | 53 | 165 | 0.0 | 0.0 | 0.00 | 0.17 | 0.17 | 99 | 1005.7 |
| 20260903064429 | 53 | 165 | 0.0 | 0.0 | 0.00 | 0.17 | 0.17 | 99 | 1006.0 |
| 20260903063928 | 53 | 165 | 0.0 | 0.0 | 0.00 | 0.17 | 0.17 | 99 | 1006.1 |
| 20260903063429 | 53 | 165 | 0.0 | 0.0 | 0.00 | 0.17 | 0.17 | 99 | 1005.6 |
| 20260903062929 | 53 | 165 | 0.0 | 0.0 | 0.00 | 0.17 | 0.17 | 99 | 1005.6 |
| 20260903062429 | 53 | 165 | 0.0 | 0.0 | 0.00 | 0.17 | 0.17 | 99 | 1005.8 |
| 20260903061928 | 53 | 165 | 0.0 | 2.0 | 0.00 | 0.17 | 0.17 | 99 | 1005.8 |
| 20260903061428 | 53 | 165 | 0.0 | 2.0 | 0.00 | 0.17 | 0.17 | 99 | 1005.5 |
| 20260903060929 | 53 | 165 | 0.0 | 0.0 | 0.00 | 0.17 | 0.17 | 99 | 1005.6 |
| 20260903060429 | 54 | 165 | 0.0 | 0.0 | 0.00 | 0.17 | 0.17 | 99 | 1005.7 |
| 20260903055929 | 54 | 165 | 0.0 | 0.0 | 0.00 | 0.17 | 0.17 | 99 | 1006.0 |
| 20260903055429 | 54 | 165 | 0.0 | 0.0 | 0.00 | 0.17 | 0.17 | 99 | 1005.9 |
| 20260903054928 | 54 | 165 | 0.0 | 0.0 | 0.00 | 0.17 | 0.17 | 99 | 1005.8 |
| 20260903054428 | 54 | 165 | 0.0 | 0.0 | 0.00 | 0.17 | 0.17 | 99 | 1005.9 |
| 20260903053930 | 54 | 165 | 0.0 | 0.0 | 0.00 | 0.17 | 0.17 | 99 | 1005.9 |
| 20260903053430 | 55 | 165 | 0.0 | 4.0 | 0.00 | 0.17 | 0.17 | 99 | 1005.9 |
| 20260903053215 | 55 | 165 | 0.0 | 9.0 | 0.00 | 0.17 | 0.17 | 99 | 1005.8 |
| 20260903052428 | 55 | 165 | 0.0 | 9.0 | 0.00 | 0.17 | 0.17 | 99 | 1005.7 |
| 20260903051929 | 55 | 165 | 0.0 | 24.0 | 0.00 | 0.17 | 0.17 | 99 | 1005.8 |
| 20260903051428 | 55 | 165 | 0.0 | 24.0 | 0.00 | 0.17 | 0.17 | 99 | 1005.7 |
| 20260903050929 | 55 | 165 | 0.0 | 0.0 | 0.00 | 0.17 | 0.17 | 99 | 1005.7 |
| 20260903050428 | 55 | 165 | 0.0 | 0.0 | 0.00 | 0.17 | 0.17 | 99 | 1005.4 |
| 20260903045928 | 55 | 165 | 0.0 | 10.0 | 0.00 | 0.17 | 0.17 | 99 | 1005.5 |
| 20260903045430 | 55 | 165 | 0.0 | 10.0 | 0.00 | 0.17 | 0.17 | 99 | 1005.5 |
| 20260903045220 | 55 | 166 | 0.0 | 6.0 | 0.00 | 0.17 | 0.17 | 99 | 1005.8 |
| 20260903044431 | 55 | 160 | 0.0 | 0.0 | 0.00 | 0.17 | 0.17 | 99 | 1005.5 |
| 20260903043932 | 55 | 160 | 0.0 | 4.0 | 0.00 | 0.17 | 0.17 | 99 | 1005.4 |
| 20260903043430 | 55 | 160 | 1.0 | 4.0 | 0.00 | 0.17 | 0.17 | 99 | 1005.5 |
| 20260903042937 | 55 | 160 | 0.0 | 0.0 | 0.00 | 0.17 | 0.17 | 99 | 1005.4 |
| 20260903042431 | 55 | 160 | 0.0 | 4.0 | 0.00 | 0.17 | 0.17 | 99 | 1005.3 |
| 20260903041931 | 55 | 160 | 0.0 | 4.0 | 0.00 | 0.17 | 0.17 | 99 | 1005.3 |
| 20260903041431 | 55 | 160 | 0.0 | 0.0 | 0.00 | 0.17 | 0.17 | 99 | 1005.2 |
| 20260903040931 | 55 | 160 | 0.0 | 0.0 | 0.00 | 0.17 | 0.17 | 99 | 1005.1 |
| 20260903040439 | 55 | 159 | 0.0 | 0.0 | 0.00 | 0.17 | 0.17 | 99 | 1005.3 |
| 20260903040220 | 55 | 159 | 0.0 | 0.0 | 0.00 | 0.17 | 0.17 | 99 | 1005.1 |
| 20260903035430 | 55 | 158 | 0.0 | 0.0 | 0.00 | 0.17 | 0.17 | 99 | 1005.5 |
| 20260903034931 | 55 | 158 | 0.0 | 0.0 | 0.00 | 0.17 | 0.17 | 99 | 1005.1 |
| 20260903034520 | 55 | 158 | 0.0 | 3.0 | 0.00 | 0.17 | 0.17 | 98 | 1005.2 |
| 20260903034500 | 55 | 158 | 0.0 | 0.0 | 0.00 | 0.17 | 0.17 | 99 | 1005.0 |
| 20260903033431 | 55 | 158 | 0.0 | 3.0 | 0.00 | 0.17 | 0.17 | 98 | 1005.1 |
| 20260903032931 | 55 | 159 | 0.0 | 0.0 | 0.00 | 0.17 | 0.17 | 98 | 1005.2 |
| 20260903032431 | 55 | 159 | 0.0 | 0.0 | 0.00 | 0.17 | 0.17 | 98 | 1004.9 |
| 20260903031930 | 55 | 159 | 0.0 | 0.0 | 0.00 | 0.17 | 0.17 | 98 | 1004.8 |
| 20260903031431 | 55 | 159 | 0.0 | 0.0 | 0.00 | 0.17 | 0.17 | 98 | 1004.9 |
| 20260903030931 | 55 | 159 | 0.0 | 0.0 | 0.00 | 0.17 | 0.17 | 98 | 1005.0 |
| 20260903030430 | 55 | 159 | 0.0 | 4.0 | 0.00 | 0.17 | 0.17 | 98 | 1004.7 |
| 20260903025930 | 55 | 159 | 0.0 | 4.0 | 0.00 | 0.17 | 0.17 | 97 | 1004.8 |
| 20260903025433 | 56 | 159 | 0.0 | 2.0 | 0.00 | 0.17 | 0.17 | 97 | 1004.6 |
| 20260903025233 | 56 | 116 | 0.0 | 4.0 | 0.00 | 0.17 | 0.17 | 97 | 1004.4 |
| 20260903024430 | 56 | 157 | 0.0 | 7.0 | 0.00 | 0.17 | 0.17 | 97 | 1004.5 |
| 20260903023931 | 56 | 157 | 2.0 | 7.0 | 0.00 | 0.17 | 0.17 | 97 | 1004.2 |
| 20260903023723 | 56 | 164 | 0.0 | 3.0 | 0.00 | 0.17 | 0.17 | 97 | 1004.0 |
| 20260903022934 | 56 | 166 | 0.0 | 8.0 | 0.00 | 0.17 | 0.17 | 97 | 1004.0 |
| 20260903022432 | 56 | 161 | 0.0 | 8.0 | 0.00 | 0.17 | 0.17 | 97 | 1004.0 |
| 20260903021932 | 56 | 163 | 0.0 | 17.0 | 0.00 | 0.17 | 0.17 | 96 | 1003.9 |
| 20260903021430 | 57 | 164 | 0.0 | 17.0 | 0.00 | 0.17 | 0.17 | 96 | 1004.0 |
| 20260903020930 | 57 | 160 | 0.0 | 14.0 | 0.00 | 0.17 | 0.17 | 94 | 1003.8 |
| 20260903020431 | 57 | 156 | 1.0 | 14.0 | 0.00 | 0.17 | 0.17 | 92 | 1003.8 |
| 20260903015930 | 58 | 160 | 0.0 | 13.0 | 0.00 | 0.17 | 0.17 | 94 | 1003.7 |
| 20260903015430 | 58 | 174 | 0.0 | 4.0 | 0.00 | 0.17 | 0.17 | 94 | 1003.8 |
| 20260903014930 | 58 | 151 | 0.0 | 6.0 | 0.00 | 0.17 | 0.17 | 94 | 1003.7 |
| 20260903014432 | 58 | 174 | 0.0 | 9.0 | 0.00 | 0.17 | 0.17 | 94 | 1003.5 |
| 20260903013930 | 58 | 153 | 0.0 | 9.0 | 0.00 | 0.17 | 0.17 | 96 | 1003.7 |
| 20260903013443 | 58 | 154 | 0.0 | 2.0 | 0.00 | 0.17 | 0.17 | 96 | 1003.3 |
| 20260903012930 | 58 | 164 | 0.0 | 6.0 | 0.00 | 0.17 | 0.17 | 97 | 1003.3 |
| 20260903012432 | 58 | 163 | 0.0 | 7.0 | 0.00 | 0.17 | 0.17 | 98 | 1003.3 |
| 20260903011930 | 58 | 146 | 0.0 | 8.0 | 0.00 | 0.17 | 0.17 | 98 | 1003.0 |
| 20260903011719 | 58 | 123 | 0.0 | 8.0 | 0.00 | 0.17 | 0.17 | 99 | 1003.0 |
| 20260903010932 | 59 | 135 | 0.0 | 4.0 | 0.00 | 0.17 | 0.17 | 99 | 1002.9 |
| 20260903010432 | 59 | 135 | 0.0 | 3.0 | 0.00 | 0.17 | 0.17 | 99 | 1002.8 |
| 20260903005933 | 59 | 136 | 0.0 | 0.0 | 0.00 | 0.17 | 0.17 | 99 | 1002.7 |
| 20260903005432 | 59 | 136 | 0.0 | 0.0 | 0.00 | 0.17 | 0.17 | 99 | 1002.5 |
| 20260903004945 | 59 | 135 | 0.0 | 0.0 | 0.00 | 0.17 | 0.17 | 99 | 1002.6 |
| 20260903004432 | 59 | 142 | 0.0 | 8.0 | 0.00 | 0.17 | 0.17 | 99 | 1002.9 |
| 20260903003932 | 58 | 141 | 0.0 | 8.0 | 0.01 | 0.17 | 0.17 | 99 | 1002.7 |
| 20260903003431 | 58 | 141 | 0.0 | 8.0 | 0.02 | 0.17 | 0.17 | 99 | 1002.4 |
| 20260903002932 | 58 | 141 | 0.0 | 6.0 | 0.03 | 0.17 | 0.17 | 98 | 1002.3 |
| 20260903002431 | 58 | 141 | 0.0 | 6.0 | 0.04 | 0.17 | 0.17 | 98 | 1002.4 |
| 20260903002210 | 58 | 140 | 0.0 | 3.0 | 0.05 | 0.17 | 0.17 | 98 | 1002.5 |
| 20260903001431 | 59 | 148 | 0.0 | 0.0 | 0.05 | 0.17 | 0.17 | 98 | 1002.5 |
| 20260903000932 | 58 | 147 | 0.0 | 3.0 | 0.06 | 0.17 | 0.17 | 98 | 1002.7 |
| 20260903000432 | 58 | 135 | 0.0 | 3.0 | 0.07 | 0.17 | 0.17 | 98 | 1002.5 |
| 20260903000052 | 58 | 131 | 0.0 | 7.0 | 0.09 | 0.09 | 0.17 | 98 | 1002.6 |
| 20260903000045 | 58 | 130 | 0.0 | 7.0 | 0.10 | 0.09 | 0.17 | 98 | 1002.9 |
| 20260903000018 | 58 | 138 | 0.0 | 0.0 | 0.08 | 0.09 | 0.17 | 98 | 1002.8 |
| 20260902234421 | 58 | 120 | 0.0 | 3.0 | 0.11 | 0.09 | 0.17 | 98 | 1003.1 |
| 20260902233919 | 58 | 150 | 0.0 | 0.0 | 0.10 | 0.09 | 0.16 | 98 | 1003.2 |
| 20260902233422 | 58 | 150 | 0.0 | 3.0 | 0.10 | 0.09 | 0.15 | 97 | 1003.4 |
| 20260902232923 | 58 | 150 | 0.0 | 3.0 | 0.10 | 0.09 | 0.14 | 97 | 1003.3 |
| 20260902232447 | 58 | 153 | 0.0 | 0.0 | 0.09 | 0.09 | 0.13 | 97 | 1003.4 |
| 20260902231423 | 58 | 154 | 0.0 | 3.0 | 0.09 | 0.09 | 0.12 | 97 | 1003.2 |
| 20260902230923 | 58 | 154 | 0.0 | 4.0 | 0.09 | 0.09 | 0.11 | 96 | 1003.1 |
| 20260902230424 | 58 | 138 | 0.0 | 4.0 | 0.08 | 0.09 | 0.10 | 96 | 1003.0 |
| 20260902225923 | 58 | 135 | 0.0 | 7.0 | 0.07 | 0.02 | 0.09 | 95 | 1003.0 |
| 20260902225422 | 58 | 140 | 0.0 | 7.0 | 0.06 | 0.02 | 0.08 | 94 | 1003.0 |
| 20260902224922 | 58 | 138 | 0.0 | 6.0 | 0.06 | 0.02 | 0.07 | 93 | 1003.0 |
| 20260902224423 | 59 | 143 | 0.0 | 7.0 | 0.05 | 0.02 | 0.06 | 93 | 1003.1 |
| 20260902223922 | 58 | 140 | 0.0 | 7.0 | 0.05 | 0.02 | 0.06 | 92 | 1003.1 |
| 20260902223425 | 59 | 151 | 0.0 | 6.0 | 0.04 | 0.02 | 0.05 | 92 | 1003.0 |
| 20260902222923 | 59 | 145 | 0.0 | 7.0 | 0.03 | 0.02 | 0.04 | 92 | 1003.1 |
| 20260902222423 | 59 | 146 | 1.0 | 7.0 | 0.03 | 0.02 | 0.04 | 91 | 1002.9 |
| 20260902221924 | 60 | 151 | 0.0 | 6.0 | 0.02 | 0.02 | 0.03 | 90 | 1002.9 |
| 20260902221421 | 60 | 149 | 0.0 | 6.0 | 0.02 | 0.02 | 0.03 | 88 | 1002.7 |
| 20260902220922 | 60 | 148 | 0.0 | 3.0 | 0.01 | 0.02 | 0.02 | 89 | 1002.9 |
| 20260902220421 | 60 | 139 | 0.0 | 3.0 | 0.01 | 0.02 | 0.02 | 85 | 1003.1 |
| 20260902215921 | 61 | 147 | 0.0 | 0.0 | 0.01 | 0.01 | 0.02 | 86 | 1002.9 |
| 20260902215421 | 61 | 159 | 0.0 | 0.0 | 0.01 | 0.01 | 0.02 | 84 | 1003.2 |
| 20260902214922 | 61 | 129 | 0.0 | 0.0 | 0.00 | 0.01 | 0.01 | 82 | 1002.8 |
| 20260902214421 | 62 | 155 | 0.0 | 3.0 | 0.00 | 0.01 | 0.01 | 80 | 1002.9 |
| 20260902213922 | 63 | 123 | 0.0 | 3.0 | 0.01 | 0.01 | 0.01 | 77 | 1003.0 |
| 20260902213421 | 64 | 146 | 0.0 | 2.0 | 0.01 | 0.01 | 0.01 | 75 | 1002.8 |
| 20260902212922 | 64 | 149 | 1.0 | 4.0 | 0.01 | 0.01 | 0.01 | 73 | 1002.8 |
| 20260902212420 | 64 | 141 | 0.0 | 7.0 | 0.01 | 0.01 | 0.01 | 74 | 1002.9 |
| 20260902211920 | 64 | 154 | 0.0 | 7.0 | 0.01 | 0.01 | 0.01 | 77 | 1003.1 |
| 20260902211431 | 64 | 147 | 1.0 | 10.0 | 0.01 | 0.01 | 0.01 | 77 | 1002.9 |
| 20260902210927 | 63 | 123 | 0.0 | 10.0 | 0.01 | 0.01 | 0.01 | 80 | 1003.0 |
| 20260902210429 | 63 | 155 | 0.0 | 13.0 | 0.01 | 0.01 | 0.01 | 81 | 1003.2 |
| 20260902205928 | 62 | 143 | 0.0 | 13.0 | 0.01 | 0.00 | 0.01 | 84 | 1002.8 |
| 20260902205430 | 61 | 150 | 0.0 | 3.0 | 0.01 | 0.00 | 0.01 | 84 | 1002.9 |
| 20260902204925 | 61 | 154 | 0.0 | 0.0 | 0.01 | 0.00 | 0.01 | 89 | 1002.9 |
| 20260902204422 | 61 | 154 | 0.0 | 0.0 | 0.01 | 0.00 | 0.01 | 88 | 1002.8 |
| 20260902203922 | 61 | 154 | 0.0 | 0.0 | 0.00 | 0.00 | 0.00 | 86 | 1003.0 |
| 20260902203426 | 62 | 160 | 0.0 | 0.0 | 0.00 | 0.00 | 0.00 | 83 | 1003.1 |
| 20260902203203 | 63 | 158 | 0.0 | 0.0 | 0.00 | 0.00 | 0.00 | 77 | 1003.0 |
| 20260902202422 | 64 | 160 | 0.0 | 0.0 | 0.00 | 0.00 | 0.00 | 69 | 1003.0 |
| 20260902201921 | 65 | 161 | 0.0 | 3.0 | 0.00 | 0.00 | 0.00 | 67 | 1002.9 |
| 20260902201722 | 65 | 128 | 0.0 | 4.0 | 0.00 | 0.00 | 0.00 | 66 | 1003.0 |
| 20260902200921 | 65 | 159 | 0.0 | 4.0 | 0.00 | 0.00 | 0.00 | 66 | 1003.3 |
| 20260902200421 | 66 | 170 | 0.0 | 3.0 | 0.00 | 0.00 | 0.00 | 65 | 1002.9 |
| 20260902195922 | 67 | 137 | 0.0 | 7.0 | 0.00 | 0.00 | 0.00 | 63 | 1003.4 |
| 20260902195712 | 69 | 180 | 0.0 | 7.0 | 0.00 | 0.00 | 0.00 | 60 | 1002.9 |
| 20260902194921 | 68 | 139 | 0.0 | 0.0 | 0.00 | 0.00 | 0.00 | 60 | 1002.9 |
| 20260902194422 | 68 | 151 | 0.0 | 0.0 | 0.00 | 0.00 | 0.00 | 57 | 1002.9 |
| 20260902193922 | 68 | 145 | 0.0 | 0.0 | 0.00 | 0.00 | 0.00 | 58 | 1002.8 |
| 20260902193422 | 68 | 133 | 0.0 | 0.0 | 0.00 | 0.00 | 0.00 | 62 | 1003.0 |
| 20260902192921 | 68 | 154 | 0.0 | 10.0 | 0.00 | 0.00 | 0.00 | 60 | 1003.0 |
| 20260902192421 | 68 | 123 | 0.0 | 10.0 | 0.00 | 0.00 | 0.00 | 58 | 1002.9 |
| 20260902191921 | 68 | 165 | 0.0 | 2.0 | 0.00 | 0.00 | 0.00 | 59 | 1003.1 |
| 20260902191422 | 68 | 151 | 0.0 | 0.0 | 0.00 | 0.00 | 0.00 | 62 | 1003.1 |
| 20260902190922 | 68 | 275 | 0.0 | 13.0 | 0.00 | 0.00 | 0.00 | 60 | 1003.0 |
| 20260902190423 | 67 | 157 | 1.0 | 13.0 | 0.00 | 0.00 | 0.00 | 60 | 1003.5 |
| 20260902185921 | 67 | 152 | 0.0 | 0.0 | 0.00 | 0.00 | 0.00 | 67 | 1003.4 |
| 20260902185422 | 66 | 151 | 0.0 | 0.0 | 0.00 | 0.00 | 0.00 | 65 | 1003.4 |
| 20260902184922 | 66 | 146 | 0.0 | 0.0 | 0.00 | 0.00 | 0.00 | 66 | 1003.3 |
| 20260902184712 | 66 | 144 | 0.0 | 0.0 | 0.00 | 0.00 | 0.00 | 63 | 1003.5 |
| 20260902183924 | 66 | 133 | 0.0 | 0.0 | 0.00 | 0.00 | 0.00 | 62 | 1003.5 |
| 20260902183722 | 66 | 331 | 0.0 | 0.0 | 0.00 | 0.00 | 0.00 | 66 | 1003.5 |
| 20260902182922 | 66 | 148 | 0.0 | 4.0 | 0.00 | 0.00 | 0.00 | 63 | 1003.7 |
| 20260902182422 | 66 | 126 | 0.0 | 4.0 | 0.00 | 0.00 | 0.00 | 63 | 1004.0 |
| 20260902181921 | 66 | 151 | 0.0 | 3.0 | 0.00 | 0.00 | 0.00 | 64 | 1003.8 |
| 20260902181421 | 65 | 160 | 0.0 | 0.0 | 0.00 | 0.00 | 0.00 | 66 | 1004.1 |
| 20260902180921 | 65 | 140 | 0.0 | 0.0 | 0.00 | 0.00 | 0.00 | 66 | 1004.2 |
| 20260902180420 | 65 | 145 | 0.0 | 0.0 | 0.00 | 0.00 | 0.00 | 66 | 1004.0 |
| 20260902175921 | 65 | 168 | 0.0 | 0.0 | 0.00 | 0.00 | 0.00 | 65 | 1004.3 |
| 20260902175422 | 66 | 158 | 0.0 | 3.0 | 0.00 | 0.00 | 0.00 | 69 | 1004.1 |
| 20260902175239 | 65 | 158 | 0.0 | 8.0 | 0.00 | 0.00 | 0.00 | 65 | 1004.2 |
| 20260902174423 | 66 | 169 | 0.0 | 7.0 | 0.00 | 0.00 | 0.00 | 65 | 1004.3 |
| 20260902173922 | 66 | 138 | 2.0 | 8.0 | 0.00 | 0.00 | 0.00 | 65 | 1004.1 |
| 20260902173422 | 65 | 149 | 1.0 | 10.0 | 0.00 | 0.00 | 0.00 | 66 | 1004.4 |
| 20260902172920 | 65 | 132 | 0.0 | 10.0 | 0.00 | 0.00 | 0.00 | 66 | 1004.3 |
| 20260902172421 | 65 | 160 | 0.0 | 3.0 | 0.00 | 0.00 | 0.00 | 66 | 1004.5 |
| 20260902171922 | 65 | 158 | 0.0 | 1.0 | 0.00 | 0.00 | 0.00 | 68 | 1004.3 |
| 20260902171422 | 65 | 157 | 0.0 | 9.0 | 0.00 | 0.00 | 0.00 | 70 | 1004.4 |
| 20260902170921 | 65 | 145 | 0.0 | 9.0 | 0.00 | 0.00 | 0.00 | 73 | 1004.4 |
| 20260902170421 | 65 | 139 | 0.0 | 0.0 | 0.00 | 0.00 | 0.00 | 72 | 1004.4 |
| 20260902165922 | 64 | 139 | 0.0 | 0.0 | 0.00 | 0.00 | 0.00 | 73 | 1004.5 |
| 20260902165422 | 64 | 112 | 0.0 | 7.0 | 0.00 | 0.00 | 0.00 | 74 | 1004.6 |
| 20260902164921 | 64 | 151 | 0.0 | 7.0 | 0.00 | 0.00 | 0.00 | 73 | 1004.4 |
| 20260902164420 | 64 | 146 | 0.0 | 1.0 | 0.00 | 0.00 | 0.00 | 74 | 1004.6 |
| 20260902164211 | 63 | 126 | 0.0 | 6.0 | 0.00 | 0.00 | 0.00 | 79 | 1004.5 |
| 20260902163420 | 63 | 157 | 1.0 | 9.0 | 0.00 | 0.00 | 0.00 | 78 | 1004.6 |
| 20260902162920 | 62 | 152 | 0.0 | 9.0 | 0.00 | 0.00 | 0.00 | 82 | 1004.9 |
| 20260902162419 | 62 | 145 | 0.0 | 8.0 | 0.00 | 0.00 | 0.00 | 85 | 1004.9 |
| 20260902161925 | 62 | 145 | 0.0 | 6.0 | 0.00 | 0.00 | 0.00 | 84 | 1005.1 |
| 20260902161420 | 62 | 146 | 0.0 | 15.0 | 0.00 | 0.00 | 0.00 | 85 | 1004.9 |
| 20260902160921 | 61 | 142 | 0.0 | 15.0 | 0.00 | 0.00 | 0.00 | 81 | 1005.1 |
| 20260902160420 | 61 | 166 | 1.0 | 4.0 | 0.00 | 0.00 | 0.00 | 86 | 1005.1 |
| 20260902155920 | 61 | 156 | 0.0 | 4.0 | 0.00 | 0.00 | 0.00 | 88 | 1004.8 |
| 20260902155419 | 61 | 143 | 0.0 | 8.0 | 0.00 | 0.00 | 0.00 | 87 | 1005.2 |
| 20260902154921 | 60 | 132 | 0.0 | 8.0 | 0.00 | 0.00 | 0.00 | 90 | 1005.2 |
| 20260902154421 | 60 | 132 | 0.0 | 0.0 | 0.00 | 0.00 | 0.00 | 92 | 1005.3 |
| 20260902153919 | 59 | 132 | 0.0 | 0.0 | 0.00 | 0.00 | 0.00 | 92 | 1005.3 |
| 20260902153421 | 59 | 132 | 0.0 | 0.0 | 0.00 | 0.00 | 0.00 | 92 | 1005.4 |
| 20260902152922 | 59 | 132 | 0.0 | 0.0 | 0.00 | 0.00 | 0.00 | 93 | 1005.4 |
| 20260902152421 | 58 | 132 | 0.0 | 9.0 | 0.00 | 0.00 | 0.00 | 94 | 1005.4 |
| 20260902151920 | 58 | 132 | 0.0 | 9.0 | 0.00 | 0.00 | 0.00 | 94 | 1005.4 |
| 20260902151420 | 58 | 132 | 0.0 | 0.0 | 0.00 | 0.00 | 0.00 | 95 | 1005.8 |
| 20260902150920 | 58 | 132 | 0.0 | 0.0 | 0.00 | 0.00 | 0.00 | 95 | 1005.8 |
| 20260902150420 | 58 | 132 | 0.0 | 0.0 | 0.00 | 0.00 | 0.00 | 96 | 1005.8 |
| 20260902145921 | 58 | 132 | 0.0 | 0.0 | 0.00 | 0.00 | 0.00 | 96 | 1005.7 |
| 20260902145419 | 58 | 132 | 0.0 | 0.0 | 0.00 | 0.00 | 0.00 | 96 | 1006.0 |
| 20260902144920 | 58 | 132 | 0.0 | 0.0 | 0.00 | 0.00 | 0.00 | 96 | 1006.0 |
| 20260902144419 | 58 | 132 | 0.0 | 0.0 | 0.00 | 0.00 | 0.00 | 96 | 1005.9 |
| 20260902144201 | 58 | 133 | 0.0 | 0.0 | 0.00 | 0.00 | 0.00 | 97 | 1006.0 |
| 20260902143420 | 58 | 133 | 0.0 | 0.0 | 0.00 | 0.00 | 0.00 | 97 | 1006.3 |
| 20260902142920 | 58 | 133 | 0.0 | 0.0 | 0.00 | 0.00 | 0.00 | 97 | 1006.0 |
| 20260902142419 | 57 | 133 | 0.0 | 0.0 | 0.00 | 0.00 | 0.00 | 97 | 1006.1 |
| 20260902141922 | 57 | 133 | 0.0 | 0.0 | 0.00 | 0.00 | 0.00 | 97 | 1006.1 |
| 20260902141724 | 57 | 133 | 0.0 | 0.0 | 0.00 | 0.00 | 0.00 | 97 | 1006.1 |
| 20260902140920 | 57 | 133 | 0.0 | 0.0 | 0.00 | 0.00 | 0.00 | 96 | 1006.2 |
| 20260902140419 | 57 | 133 | 0.0 | 9.0 | 0.00 | 0.00 | 0.00 | 96 | 1006.4 |
| 20260902140211 | 57 | 133 | 0.0 | 9.0 | 0.00 | 0.00 | 0.00 | 96 | 1006.1 |
| 20260902135426 | 57 | 133 | 0.0 | 0.0 | 0.00 | 0.00 | 0.00 | 96 | 1006.0 |
| 20260902134919 | 57 | 133 | 0.0 | 0.0 | 0.00 | 0.00 | 0.00 | 95 | 1006.2 |
| 20260902134419 | 58 | 133 | 0.0 | 0.0 | 0.00 | 0.00 | 0.00 | 95 | 1006.1 |
| 20260902133919 | 58 | 133 | 0.0 | 0.0 | 0.00 | 0.00 | 0.00 | 94 | 1006.2 |
| 20260902133419 | 58 | 133 | 0.0 | 0.0 | 0.00 | 0.00 | 0.00 | 93 | 1006.0 |
| 20260902132920 | 58 | 133 | 0.0 | 0.0 | 0.00 | 0.00 | 0.00 | 93 | 1006.0 |
| 20260902132418 | 59 | 133 | 0.0 | 0.0 | 0.00 | 0.00 | 0.00 | 92 | 1006.1 |
| 20260902132015 | 59 | 133 | 0.0 | 2.0 | 0.00 | 0.00 | 0.00 | 90 | 1006.1 |
| 20260902131953 | 59 | 133 | 0.0 | 2.0 | 0.00 | 0.00 | 0.00 | 91 | 1006.2 |
| 20260902130920 | 59 | 133 | 0.0 | 0.0 | 0.00 | 0.00 | 0.00 | 89 | 1006.5 |
| 20260902130419 | 59 | 133 | 0.0 | 0.0 | 0.00 | 0.00 | 0.00 | 90 | 1006.3 |
| 20260902125918 | 59 | 133 | 0.0 | 8.0 | 0.00 | 0.00 | 0.00 | 89 | 1006.4 |
| 20260902125418 | 59 | 133 | 0.0 | 8.0 | 0.00 | 0.00 | 0.00 | 89 | 1006.4 |
| 20260902124919 | 59 | 133 | 0.0 | 1.0 | 0.00 | 0.00 | 0.00 | 90 | 1006.3 |
| 20260902124419 | 59 | 133 | 0.0 | 1.0 | 0.00 | 0.00 | 0.00 | 90 | 1006.5 |
| 20260902123921 | 59 | 133 | 0.0 | 0.0 | 0.00 | 0.00 | 0.00 | 91 | 1006.5 |
| 20260902123500 | 59 | 133 | 0.0 | 0.0 | 0.00 | 0.00 | 0.00 | 91 | 1006.6 |